This demonstration page uses our WeatherBlox Daily Observations layout. Learn more.

Left ArrowRight Arrow

38.88101, -77.10428

Hourly Observations for May 12, 2020

Temp ( °F °C ) Dew Point ( °F °C ) Humidity (%) Winds ( mph kmh ) Pressure ( in mb ) Visibility ( mi km ) Precip ( " mm )
12:52 am 00:52 Cloudy 48 8.9 31 -0.6 52 52 WNW 10 17 30.11 1020 10 16.0934 0 0
1:52 am 01:52 Cloudy 47 8.3 32 0 56 56 W 8 13 30.12 1020 10 16.0934 0 0
2:52 am 02:52 Cloudy 47 8.3 31 -0.6 54 54 NW 12 19 30.11 1020 10 16.0934 0 0
3:52 am 03:52 Mostly Clear 45 7.2 32 0 61 61 W 7 11 30.12 1020 10 16.0934 0 0
4:52 am 04:52 Mostly Clear 44 6.7 32 0 63 63 WNW 9 15 30.14 1021 10 16.0934 0 0
5:52 am 05:52 Mostly Cloudy 44 6.7 31 -0.6 60 60 WNW 6 9 30.16 1021 10 16.0934 0 0
6:52 am 06:52 Mostly Cloudy 45 7.2 32 0 61 61 WNW 8 13 30.18 1022 10 16.0934 0 0
7:52 am 07:52 Mostly Cloudy 48 8.9 32 0 54 54 WNW 10 17 30.19 1022 10 16.0934 0 0
8:52 am 08:52 Mostly Cloudy 50 10 33 0.6 52 52 WNW 10 17 30.2 1023 10 16.0934 0 0
9:52 am 09:52 Mostly Cloudy 53 11.7 32 0 45 45 NW 15 24 30.19 1023 10 16.0934 0 0
10:52 am 10:52 Mostly Cloudy 54 12.2 32 0 43 43 NW 12 19 30.19 1023 10 16.0934 0 0
11:52 am 11:52 Mostly Cloudy 55 12.8 32 0 42 42 NW 14 22 30.19 1022 10 16.0934 0 0
12:52 pm 12:52 Mostly Cloudy 58 14.4 31 -0.6 36 36 W 15 24 30.17 1022 10 16.0934 0 0
1:52 pm 13:52 Partly Cloudy 60 15.6 31 -0.6 33 33 NW 16 26 30.15 1021 10 16.0934 0 0
2:52 pm 14:52 Partly Cloudy 61 16.1 30 -1.1 31 31 W 15 24 30.14 1021 10 16.0934 0 0
3:52 pm 15:52 Mostly Cloudy 62 16.7 30 -1.1 30 30 W 15 24 30.12 1020 10 16.0934 0 0
4:52 pm 16:52 Mostly Cloudy 63 17.2 28 -2.2 27 27 NW 14 22 30.11 1020 10 16.0934 0 0
5:52 pm 17:52 Partly Cloudy 62 16.7 25 -3.9 24 24 WNW 14 22 30.13 1020 10 16.0934 0 0
6:52 pm 18:52 Mostly Sunny 62 16.7 24 -4.4 23 23 W 13 20 30.14 1021 10 16.0934 0 0
7:52 pm 19:52 Partly Cloudy 60 15.6 25 -3.9 26 26 NW 12 19 30.16 1022 10 16.0934 0 0
8:52 pm 20:52 Mostly Clear 56 13.3 27 -2.8 33 33 NNW 7 11 30.19 1022 10 16.0934 0 0
9:52 pm 21:52 Mostly Clear 56 13.3 26 -3.3 32 32 NW 6 9 30.21 1023 10 16.0934 0 0
10:52 pm 22:52 Mostly Clear 53 11.7 28 -2.2 38 38 W 6 9 30.23 1024 10 16.0934 0 0
11:52 pm 23:52 Mostly Clear 51 10.6 32 0 48 48 Calm 30.24 1024 10 16.0934 0 0

Powered by AerisWeather